#timestamp,LO_Frequency,Hit,StdDev 
1586725215.4,286046997.6,N
1586725235.3,286046996.7,N
1586725255.1,286047000.7,N
1586725256.0,286047000.7,N
1586725275.8,286047000.0,N
1586725295.7,286046999.1,N
1586725315.5,286046996.6,N
1586725335.4,286046995.8,N
1586725355.2,286046997.6,N
1586725375.0,286046999.3,N
1586725375.9,286046999.3,N
1586725395.8,286046999.1,N
1586725415.6,286047000.8,N
1586725435.4,286047001.0,N
1586725455.3,286047002.1,N
1586725475.1,286046998.1,N
1586725495.9,286046998.7,N
1586725515.7,286046998.9,N
1586725535.5,286046999.1,N
1586725555.4,286046999.1,N
1586725575.2,286047002.4,N
1586725595.0,286047004.4,N
1586725596.0,286047004.4,N
1586725615.8,286047001.9,N
1586725635.6,286047000.6,N
1586725655.5,286047000.4,N
1586725675.3,286047001.0,N
1586725695.1,286046999.8,N
1586725715.9,286047000.4,N
1586725735.7,286047002.3,N
1586725755.6,286047001.6,N
1586725775.4,286046999.8,N
1586725795.2,286047002.2,N
1586725815.1,286046999.8,N
1586725816.0,286046999.8,N
1586725835.8,286047001.4,N
1586725855.7,286047003.9,N
1586725875.5,286047001.6,N
1586725895.3,286047004.3,N
1586725915.2,286047002.6,N
1586725935.0,286047000.6,N
1586725935.9,286047000.6,N
1586725955.7,286047000.2,N
1586725975.6,286047003.6,N
1586725995.4,286047001.4,N
1586726015.3,286047003.7,N
1586726035.1,286047001.3,N
1586726055.8,286047004.2,N
1586726075.7,286047003.3,N
1586726095.5,286047002.9,N
1586726115.4,286047002.7,N
1586726135.2,286047000.3,N
1586726155.0,286047001.5,N
1586726155.9,286047001.5,N
1586726175.8,286047001.7,N
1586726195.6,286047004.3,Y
1586726215.5,286046998.5,P
1586726235.3,286047000.4,N
1586726255.1,286046998.8,N
1586726275.9,286047000.7,N
1586726295.7,286047001.6,N
1586726315.6,286047002.0,N
1586726335.4,286046998.7,N
1586726355.2,286047000.5,N
1586726375.1,286046999.5,N
1586726376.0,286046999.5,N
1586726395.8,286046997.8,N
1586726415.6,286046999.1,N
1586726435.5,286046998.9,N
1586726455.3,286047000.7,N
1586726475.2,286047000.4,N
1586726495.9,286047000.1,N
1586726515.7,286046999.9,N
1586726535.6,286047000.9,N
1586726555.4,286047000.6,N
1586726575.2,286047001.4,N
1586726595.1,286047003.9,Y
1586726596.0,286047003.9,P
1586726615.8,286047001.5,N
1586726635.7,286047002.2,N
1586726655.5,286047002.6,N
1586726675.3,286047002.1,N
1586726695.2,286047002.1,N
1586726715.0,286047002.5,N
1586726715.9,286047002.5,N
1586726735.8,286046999.8,N
1586726755.6,286047001.0,N
1586726775.4,286047001.5,N
1586726795.3,286047004.4,Y
1586726815.1,286047000.2,P
1586726835.9,286047001.9,N
1586726855.7,286046999.7,N
1586726875.5,286046999.1,N
1586726895.4,286047001.1,N
1586726915.2,286047000.6,N
1586726935.0,286047001.0,N
1586726935.9,286047001.0,N
1586726955.8,286047002.5,N
1586726975.6,286047002.2,N
1586726995.5,286047001.8,N
1586727015.3,286047000.6,N
1586727035.1,286046998.1,N
1586727055.9,286047001.0,N
1586727075.7,286047000.8,N
1586727095.6,286047001.6,N
1586727115.4,286047002.1,N
1586727135.2,286047003.9,Y
1586727155.1,286047001.0,P
1586727156.0,286047001.0,P
1586727175.8,286047000.0,N
1586727195.7,286047002.3,Y
1586727215.5,286047000.8,P
1586727235.3,286046997.5,P
1586727255.2,286046996.3,N
1586727275.0,286046995.4,N
1586727275.9,286046995.4,N
1586727295.8,286046993.8,N
1586727315.6,286046996.7,N
1586727335.4,286046998.9,N
1586727355.3,286047000.7,N
1586727375.1,286047000.0,N
1586727395.8,286047002.4,N
1586727415.7,286047001.4,N
1586727435.5,286046998.3,N
1586727455.4,286046998.4,N
1586727475.2,286046998.8,N
1586727495.0,286046997.2,N
1586727495.9,286046997.2,N
1586727515.8,286046997.3,N
1586727535.6,286046999.1,N
1586727555.4,286046995.4,N
1586727575.3,286046995.4,N
1586727595.1,286046995.3,N
1586727615.9,286046995.4,N
1586727635.7,286046995.8,N
1586727655.5,286046995.6,N
1586727675.4,286046996.8,N
1586727695.2,286046998.7,N
1586727715.0,286047001.0,N
1586727715.9,286047001.0,N
1586727735.8,286046998.5,N
1586727755.6,286046997.1,N
1586727775.5,286046994.9,N
1586727795.3,286046993.4,N
1586727815.1,286046994.1,N
1586727835.9,286046993.7,N
1586727855.7,286046994.6,N
1586727875.6,286046993.8,N
1586727895.4,286046994.1,N
1586727915.2,286046995.1,N
1586727935.1,286046996.0,N
1586727936.0,286046996.0,N
1586727955.8,286046994.3,N
1586727975.7,286046991.9,Y
1586727995.5,286046995.7,P
1586728015.3,286046995.5,P
1586728035.2,286046997.8,P
1586728055.0,286046996.7,Y
1586728055.9,286046996.7,P
1586728075.8,286047000.3,N
1586728095.6,286046998.9,N
1586728115.4,286047000.7,N
1586728135.3,286047000.3,N
1586728155.1,286046998.8,N
1586728175.8,286046997.7,N
1586728195.7,286046997.8,N
1586728215.5,286046995.4,Y
1586728235.4,286046999.2,P
1586728255.2,286046997.2,P
1586728275.0,286046997.7,N
1586728275.9,286046997.7,N
1586728295.8,286046997.7,Y
1586728315.6,286046998.6,P
1586728335.5,286046997.0,P
1586728355.3,286046999.0,N
1586728375.1,286046999.0,N
1586728395.9,286046996.8,Y
1586728415.7,286046998.3,P
1586728435.6,286047001.2,P
1586728455.4,286047000.5,N
1586728475.2,286046998.6,N
1586728495.1,286047001.1,N
1586728496.0,286047001.1,N
1586728515.8,286047001.1,N
1586728535.6,286047001.1,N
1586728555.5,286046998.3,N
1586728575.3,286046999.1,N
1586728595.2,286046995.3,Y
1586728615.0,286046996.6,P
1586728615.9,286046996.6,N
1586728635.7,286046996.6,N
1586728655.6,286046994.9,Y
1586728675.4,286046998.4,P
1586728695.3,286046999.3,N
1586728715.1,286046998.8,N
1586728735.8,286046998.2,N
1586728755.7,286046999.4,N
1586728775.5,286046999.4,N
1586728795.4,286046998.8,N
